Regional Weather Roundup
Issued by NWS

Home | Current Version | Previous Version | Text Only | Print | Product List | Glossary Off
Versions: 1 2 3 4 5 6 7 8 9 10 11 12 13 14 15 16 17 18 19 20 21 22 23 24 25 26 27 28 29 30 31 32 33 34 35 36 37 38 39 40 41 42 43 44 45 46 47 48 49 50

000
ASUS45 KTFX 221719
RWRMT
MONTANA HOURLY WEATHER ROUNDUP
NATIONAL WEATHER SERVICE GREAT FALLS MT
1119 AM MDT WED OCT 22 2014

NOTE: "FAIR" INDICATES FEW OR NO CLOUDS BELOW 12000 FEET WITH NO
SIGNIFICANT WEATHER AND/OR OBSTRUCTIONS TO VISIBILITY.

* THESE STATIONS ARE NOT UNDER NWS QUALITY CONTROL. THEY DO NOT
   REPORT WEATHER SUCH AS PRECIPITATION OR FOG.

MTZ001>007-043-221800-
WEST OF THE DIVIDE
CITY           SKY/WX    TMP DP  RH WIND       PRES   REMARKS
KALISPELL      PTCLDY    48  41  77 NE3       29.99F
MISSOULA       SUNNY     43  37  79 SE8       30.07F
BUTTE          PTCLDY    43  30  60 CALM      30.09F
MULLAN PASS    PTSUNNY   37  34  89 VRB3      29.98F
* ESSEX        N/A       43  40  89 E1         N/A
* LINCOLN      N/A       43  32  65 W4G12      N/A
* LOOKOUT PASS N/A       34  34 100 S4         N/A
* POLSON       N/A       44  40  86 SW2        N/A
* RONAN APT    SUNNY     48  39  71 N/A        N/A
* SEELEY LAKE  N/A       35  34  96 S1         N/A
* THOMP F APT  SUNNY     35  31  85 E5G10      N/A   WCI  31
$$

MTZ008-052>055-221800-
SOUTHWEST MONTANA
CITY           SKY/WX    TMP DP  RH WIND       PRES   REMARKS
BOZEMAN        SUNNY     46  34  63 E3        30.09F
DILLON         SUNNY     43  32  65 SW13      30.11F
W YELLOWSTONE  CLOUDY    37  32  82 SW12      30.19S WCI  29
* THREE FORKS  SUNNY     43  25  49 N/A        N/A
* BOULDER HILL N/A       38  28  67 S17        N/A   WCI  29
* MONIDA PASS  N/A       32  32 100 SE14G19    N/A   WCI  22
* RAYNOLDS PAS N/A       34  21  59 S6         N/A   WCI  29
* WHITEHALL    N/A       44  33  65 SE3G12     N/A
* WISE RIVER   N/A       35  32  89 W5         N/A   WCI  31
$$

MTZ009>010-012-014-046-048-049-054-221800-
EAST SLOPES AND CENTRAL MONTANA
CITY           SKY/WX    TMP DP  RH WIND       PRES   REMARKS
CUT BANK       SUNNY     54  32  43 W24G41    29.87F
GREAT FALLS    SUNNY     52  34  50 SW24G32   29.94S
HELENA         SUNNY     46  36  68 N6        30.03F
MALMSTROM AFB  SUNNY     52  32  47 SW24G31   29.96S
* CONRAD       SUNNY     52  36  55 SE5        N/A
* DEARBORN     N/A       51  31  46 S15G24     N/A
* EAST GLACIER N/A       45  29  54 W38G56     N/A
* MONARCH      N/A       44  21  40 SW19G27    N/A
* PENDROY      N/A       54  29  38 SE2        N/A
* ROGERS PASS  N/A       40  30  68 E16G28     N/A   WCI  32
* SAINT MARY   N/A       47  29  50 SW11G23    N/A
* SWEET GRASS  N/A       49  31  50 W17G24     N/A
* WHITE SULPH  N/A       46  30  54 S17G22     N/A
$$

MTZ011-013-016-021-035-040-045-047-050-051-221800-
NORTH CENTRAL MONTANA
CITY           SKY/WX    TMP DP  RH WIND       PRES   REMARKS
HAVRE          SUNNY     52  39  61 SW17      29.90S
LEWISTOWN      SUNNY     52  32  47 SW21      29.97F
* CHINOOK      SUNNY     55  34  45 SW15G26   29.90S
* FORT BENTON  SUNNY     55  36  49 S13G20    29.94S
* CHESTER      N/A       46  36  68 SW4        N/A
* DENTON       N/A       54  31  42 W20        N/A
* GEYSER       N/A       50  27  41 SW23G28    N/A
* JUDITH GAP   N/A       49  33  54 SW19G27    N/A
* LOMA         N/A       52  36  55 SW18       N/A
$$

MTZ017>020-022>027-061-062-221800-
NORTHEAST MONTANA
CITY           SKY/WX    TMP DP  RH WIND       PRES   REMARKS
GLASGOW        SUNNY     57  36  46 W24G32    29.86R
GLENDIVE       SUNNY     57  37  47 W22G30    29.91S
JORDAN         SUNNY     57  32  39 W22G31    29.92R
SIDNEY         SUNNY     57  39  51 SW18G28   29.85F
WOLF POINT     SUNNY     57  39  51 W22G30    29.85R
* BEAVER HILL  N/A       54  36  51 SW19G24    N/A
* CIRCLE       N/A       55  39  55 SW15G21    N/A
* LINDSAY DVD  N/A       54  34  47 W22G28     N/A
* NAVAJO       N/A       51  44  77 W20G27     N/A
$$

MTZ028>042-056>058-221800-
SOUTHCENTRAL AND SOUTHEAST MONTANA
CITY           SKY/WX    TMP DP  RH WIND       PRES   REMARKS
BAKER          SUNNY     54  36  51 W25G35    29.94F
BILLINGS       SUNNY     52  28  40 SW15      30.01F
LIVINGSTON     SUNNY     54  28  37 SW24G38   30.04F
MILES CITY     SUNNY     57  32  39 W20       29.96S
* LAUREL APT   SUNNY     54  27  35 VRB6       N/A
* ROUNDUP APT  SUNNY     55  27  34 W23G30     N/A
* ALZADA       N/A       54  32  43 W11G16     N/A
* HYSHAM       N/A       52  31  45 W9G19      N/A
* LAME DEER    N/A       49  28  44 W12        N/A
* REED POINT   N/A       53  30  41 W18G23     N/A
* ROSCOE HILL  N/A       51  18  27 SE6G20     N/A
$$

REGIONAL REPORTS...DAKOTAS
CITY           SKY/WX    TMP DP  RH WIND       PRES   REMARKS
WILLISTON      SUNNY     57  41  55 W16G28    29.80F
DICKINSON      PTCLDY    57  37  47 W25G31    29.85F
BEACH          N/A       54  36  51 W18G25    29.90S
CROSBY         SUNNY     55  46  72 W21G28    29.76R
TIOGA          PTSUNNY   54  46  74 W23G30    29.80F
BISMARCK       CLOUDY    57  45  64 W13       29.86S
GRAND FORKS    PTSUNNY   61  45  56 S23G36    29.81F
FARGO          SUNNY     61  45  56 S21G32    29.87R
BUFFALO SD     SUNNY     57  34  42 W24G31    29.90S
RAPID CITY     CLOUDY    61  32  34 NW9       30.02R
$$

REGIONAL REPORTS...WYOMING/IDAHO/WASHINGTON
CITY           SKY/WX    TMP DP  RH WIND       PRES   REMARKS
GILLETTE       SUNNY     54  28  37 W7        30.08R
SHERIDAN       SUNNY     55  27  34 E10       30.04F
CODY           SUNNY    N/A N/A N/A W17G22    30.07S
YELLOWSTONE LA PTCLDY    36  27  70 VRB3      30.21S
SALMON         SUNNY    N/A N/A N/A N/A        N/A
MULLAN PASS    PTSUNNY   37  34  89 VRB3      29.98S
SAND POINT     CLOUDY    50  41  71 CALM      29.95S
SPOKANE        LGT RAIN  52  39  61 SE14      29.91F
$$

REGIONAL REPORTS...ALBERTA
CITY           SKY/WX    TMP DP  RH WIND       PRES   REMARKS
CALGARY        SUNNY     50  28  43 S6        29.71F
LETHBRIDGE     SUNNY     55  30  39 SW15      29.82S
MEDICINE HAT   SUNNY     55  37  51 SW16      29.82S
EDMONTON       PTSUNNY   48  36  63 S7        29.65F
WATERTON GATE  N/A       52  28  40 SW18G29    N/A
CARDSTON       N/A       54  30  40 SW8        N/A
MILK RIVER     N/A       54  34  47 W15G21     N/A
$$

REGIONAL REPORTS...SASKATCHEWAN
CITY           SKY/WX    TMP DP  RH WIND       PRES   REMARKS
SWIFT CURRENT  PTSUNNY   48  45  89 W14G22    29.78R
MOOSE JAW      LGT RAIN  48  48 100 W15       29.73R
REGINA         CLOUDY    50  46  86 W17       29.71R
VAL MARIE      N/A       50  41  71 W17        N/A
ASSINIBOIA     N/A       52  46  80 NW20G25    N/A
CORONACH       N/A       50  45  83 W14G20     N/A

$$




USA.gov is the U.S. government's official web portal to all federal, state and local government web resources and services.